Change the Weather History Date:

Tuesday, December 18, 2012

  Actual Average Record
Temperature  
Mean Temperature 45 °F -  
Max Temperature 66 °F 44 °F 68 °F (2002)
Min Temperature 24 °F 26 °F 17 °F (1996)
Degree Days  
Heating Degree Days 20    
Moisture  
Dew Point 29 °F    
Average Humidity 61    
Maximum Humidity 86    
Minimum Humidity 26    
Precipitation  
Precipitation 0.00 in - - ()
Sea Level Pressure  
Sea Level Pressure 29.79 in    
Wind  
Wind Speed 2 mph (SSW)    
Max Wind Speed 12 mph    
Max Gust Speed 16 mph    
Visibility 8 miles    
Events      
Averages and records for this station are not official NWS values.
T = Trace of Precipitation, MM = Missing Value Source: NWS Daily Summary

Daily Weather History Graph

Daily Weather History Graph

Search for Another Location

Airport or City:

Trip Planner

Search our weather history database for the weather conditions in past years. The results will help you decide how hot, cold, wet, or windy it might be!

Date:

Astronomy

Dec. 18, 2012 Rise Set
Actual Time 7:16 AM CST 4:57 PM CST
Civil Twilight 6:47 AM CST 5:26 PM CST
Nautical Twilight 6:15 AM CST 5:58 PM CST
Astronomical Twilight 5:44 AM CST 6:30 PM CST
Moon 11:06 AM CST (12/18) 11:14 PM CST (12/18)
Length of Visible Light 10h 38m
Length of Day
9h 41m
Waxing Crescent, 35% of the Moon is Illuminated
Dec 18
Waxing Crescent
Dec 19
First Quarter
Dec 28
Full
Jan 4
Last Quarter
Jan 11
New

Hourly Weather History & Observations

Time (CST) Temp. Windchill Dew Point Humidity Pressure Visibility Wind Dir Wind Speed Gust Speed Precip Events Conditions
12:15 AM 30.2 °F 26.7 °F 24.8 °F 80% 29.81 in 3.0 mi East 3.5 mph - N/A   Clear
12:35 AM 30.2 °F - 24.8 °F 80% 29.81 in 3.0 mi Calm Calm - N/A   Clear
1:35 AM 28.4 °F - 24.8 °F 86% 29.81 in 3.0 mi Calm Calm - N/A   Clear
1:55 AM 28.4 °F - 24.8 °F 86% 29.81 in 3.0 mi Calm Calm - N/A   Clear
2:35 AM 28.4 °F - 21.2 °F 74% 29.81 in 3.0 mi Calm Calm - N/A   Clear
2:55 AM 28.4 °F - 23.0 °F 80% 29.81 in 3.0 mi Calm Calm - N/A   Clear
3:35 AM 26.6 °F - 21.2 °F 80% 29.81 in 6.0 mi Calm Calm - N/A   Clear
3:55 AM 26.6 °F - 21.2 °F 80% 29.81 in 5.0 mi Calm Calm - N/A   Clear
4:15 AM 26.6 °F - 21.2 °F 80% 29.80 in 8.0 mi Calm Calm - N/A   Clear
4:55 AM 26.6 °F - 21.2 °F 80% 29.79 in 9.0 mi Calm Calm - N/A   Clear
5:15 AM 24.8 °F - 19.4 °F 80% 29.78 in 6.0 mi Calm Calm - N/A   Clear
5:55 AM 26.6 °F - 21.2 °F 80% 29.79 in 8.0 mi Calm Calm - N/A   Clear
6:15 AM 26.6 °F - 21.2 °F 80% 29.79 in 7.0 mi Calm Calm - N/A   Clear
6:55 AM 24.8 °F - 19.4 °F 80% 29.79 in 7.0 mi Calm Calm - N/A   Clear
7:35 AM 26.6 °F - 19.4 °F 74% 29.79 in 7.0 mi Calm Calm - N/A   Clear
8:15 AM 26.6 °F - 21.2 °F 80% 29.80 in 7.0 mi Calm Calm - N/A   Clear
8:35 AM 30.2 °F - 24.8 °F 80% 29.80 in 6.0 mi Calm Calm - N/A   Clear
8:55 AM 30.2 °F - 24.8 °F 80% 29.80 in 8.0 mi Calm Calm - N/A   Clear
9:35 AM 37.4 °F 34.9 °F 30.2 °F 75% 29.80 in 10.0 mi ESE 3.5 mph - N/A   Clear
9:55 AM 39.2 °F - 30.2 °F 70% 29.79 in 10.0 mi Calm Calm - N/A   Clear
10:35 AM 46.4 °F - 33.8 °F 62% 29.79 in 10.0 mi Calm Calm - N/A   Clear
11:15 AM 51.8 °F - 35.6 °F 54% 29.78 in 10.0 mi Calm Calm - N/A   Clear
11:35 AM 53.6 °F - 35.6 °F 51% 29.78 in 10.0 mi East 3.5 mph - N/A   Clear
11:55 AM 55.4 °F - 35.6 °F 47% 29.77 in 10.0 mi Calm Calm - N/A   Clear
12:15 PM 57.2 °F - 35.6 °F 44% 29.77 in 10.0 mi Calm Calm - N/A   Clear
12:55 PM 62.6 °F - 35.6 °F 37% 29.75 in 10.0 mi ESE 4.6 mph - N/A   Clear
1:15 PM 64.4 °F - 33.8 °F 32% 29.73 in 10.0 mi SSW 9.2 mph - N/A   Clear
1:35 PM 64.4 °F - 32.0 °F 30% 29.73 in 10.0 mi SW 8.1 mph - N/A   Clear
1:55 PM 66.2 °F - 33.8 °F 30% 29.72 in 10.0 mi SSW 6.9 mph - N/A   Clear
2:15 PM 66.2 °F - 32.0 °F 28% 29.73 in 10.0 mi West 11.5 mph 16.1 mph N/A   Clear
2:35 PM 66.2 °F - 30.2 °F 26% 29.74 in 10.0 mi SW 6.9 mph - N/A   Clear
3:35 PM 64.4 °F - 30.2 °F 28% 29.74 in 10.0 mi SSW 6.9 mph - N/A   Clear
4:15 PM 64.4 °F - 32.0 °F 30% 29.75 in 10.0 mi SSW 5.8 mph - N/A   Clear
4:35 PM 62.6 °F - 33.8 °F 34% 29.76 in 10.0 mi Calm Calm - N/A   Clear
5:15 PM 59.0 °F - 33.8 °F 39% 29.77 in 10.0 mi North 5.8 mph - N/A   Clear
5:35 PM 57.2 °F - 33.8 °F 41% 29.78 in 10.0 mi Calm Calm - N/A   Clear
5:55 PM 53.6 °F - 33.8 °F 47% 29.79 in 10.0 mi WSW 3.5 mph - N/A   Clear
6:35 PM 51.8 °F - 33.8 °F 50% 29.81 in 10.0 mi Calm Calm - N/A   Clear
6:55 PM 50.0 °F - 33.8 °F 54% 29.81 in 10.0 mi Calm Calm - N/A   Clear
7:35 PM 48.2 °F - 33.8 °F 58% 29.82 in 10.0 mi Calm Calm - N/A   Clear
8:15 PM 46.4 °F 45.2 °F 33.8 °F 62% 29.83 in 10.0 mi West 3.5 mph - N/A   Clear
8:36 PM 44.6 °F - 32.0 °F 61% 29.83 in 10.0 mi Calm Calm - N/A   Clear
8:55 PM 42.8 °F - 32.0 °F 66% 29.84 in 10.0 mi Calm Calm - N/A   Clear
9:15 PM 41.0 °F - 32.0 °F 70% 29.84 in 10.0 mi Calm Calm - N/A   Clear
10:15 PM 42.8 °F - 32.0 °F 66% 29.85 in 10.0 mi Calm Calm - N/A   Clear
10:55 PM 39.2 °F 37.0 °F 30.2 °F 70% 29.84 in 10.0 mi South 3.5 mph - N/A   Clear
11:35 PM 42.8 °F - 32.0 °F 66% 29.85 in 10.0 mi Calm Calm - N/A   Clear
11:55 PM 39.2 °F 35.0 °F 30.2 °F 70% 29.85 in 10.0 mi NNE 5.8 mph - N/A   Clear